| time (UTC) | temp F | wind direction | speed MPH | gust MPH | rain 1hr in | rain 24hr in | rain mn in | humidity % | barometer mb |
| 20260901211537 | 51 | 113 | 1.0 | 2.0 | 0.00 | 0.00 | 0.00 | 92 | 1007.0 |
| 20260901210516 | 52 | 0.0 | 0.0 | 0.00 | 0.00 | 0.00 | 91 | 1007.0 | |
| 20260901205516 | 52 | 0.0 | 1.0 | 0.00 | 0.00 | 0.00 | 91 | 1007.1 | |
| 20260901204516 | 52 | 0.0 | 1.0 | 0.00 | 0.00 | 0.00 | 91 | 1007.1 | |
| 20260901203517 | 52 | 113 | 1.0 | 2.0 | 0.00 | 0.00 | 0.00 | 90 | 1007.0 |
| 20260901202516 | 52 | 0.0 | 1.0 | 0.00 | 0.00 | 0.00 | 90 | 1007.0 | |
| 20260901201516 | 53 | 113 | 1.0 | 2.0 | 0.00 | 0.00 | 0.00 | 89 | 1007.1 |
| 20260901200516 | 53 | 0.0 | 1.0 | 0.00 | 0.00 | 0.00 | 89 | 1007.0 | |
| 20260901195516 | 53 | 0.0 | 1.0 | 0.00 | 0.00 | 0.00 | 88 | 1007.0 | |
| 20260901194536 | 54 | 0.0 | 0.0 | 0.00 | 0.00 | 0.00 | 88 | 1007.0 | |
| 20260901193516 | 54 | 113 | 1.0 | 2.0 | 0.00 | 0.00 | 0.00 | 87 | 1007.1 |
| 20260901192516 | 54 | 0.0 | 2.0 | 0.00 | 0.00 | 0.00 | 87 | 1007.1 | |
| 20260901191516 | 55 | 0.0 | 1.0 | 0.00 | 0.00 | 0.00 | 86 | 1007.1 | |
| 20260901190556 | 55 | 0.0 | 1.0 | 0.00 | 0.00 | 0.00 | 85 | 1007.0 | |
| 20260901185516 | 56 | 0.0 | 1.0 | 0.00 | 0.00 | 0.00 | 84 | 1007.0 | |
| 20260901184536 | 57 | 0.0 | 1.0 | 0.00 | 0.00 | 0.00 | 83 | 1006.9 | |
| 20260901183516 | 57 | 0.0 | 1.0 | 0.00 | 0.00 | 0.00 | 81 | 1006.9 | |
| 20260901182516 | 58 | 0.0 | 0.0 | 0.00 | 0.00 | 0.00 | 79 | 1006.9 | |
| 20260901181537 | 59 | 0.0 | 0.0 | 0.00 | 0.00 | 0.00 | 76 | 1006.9 | |
| 20260901180536 | 59 | 0.0 | 1.0 | 0.00 | 0.00 | 0.00 | 74 | 1006.9 | |
| 20260901175516 | 60 | 0.0 | 1.0 | 0.00 | 0.00 | 0.00 | 72 | 1006.8 | |
| 20260901174536 | 61 | 0.0 | 0.0 | 0.00 | 0.00 | 0.00 | 70 | 1006.8 | |
| 20260901173516 | 63 | 0.0 | 0.0 | 0.00 | 0.00 | 0.00 | 68 | 1006.8 | |
| 20260901172536 | 64 | 113 | 1.0 | 3.0 | 0.00 | 0.00 | 0.00 | 64 | 1006.8 |
| 20260901171516 | 65 | 113 | 1.0 | 2.0 | 0.00 | 0.00 | 0.00 | 63 | 1006.9 |
| 20260901170516 | 65 | 113 | 2.0 | 3.0 | 0.00 | 0.00 | 0.00 | 60 | 1006.9 |
| 20260901165516 | 66 | 113 | 1.0 | 2.0 | 0.00 | 0.00 | 0.00 | 58 | 1007.0 |
| 20260901164516 | 67 | 113 | 2.0 | 3.0 | 0.00 | 0.00 | 0.00 | 57 | 1007.0 |
| 20260901163516 | 67 | 0.0 | 2.0 | 0.00 | 0.00 | 0.00 | 55 | 1007.1 | |
| 20260901162516 | 67 | 0.0 | 2.0 | 0.00 | 0.00 | 0.00 | 58 | 1007.1 | |
| 20260901161516 | 68 | 45 | 1.0 | 2.0 | 0.00 | 0.00 | 0.00 | 55 | 1007.1 |
| 20260901160516 | 68 | 45 | 2.0 | 3.0 | 0.00 | 0.00 | 0.00 | 55 | 1007.2 |
| 20260901155516 | 68 | 270 | 1.0 | 2.0 | 0.00 | 0.00 | 0.00 | 54 | 1007.2 |
| 20260901154536 | 68 | 23 | 1.0 | 3.0 | 0.00 | 0.00 | 0.00 | 52 | 1007.2 |
| 20260901153517 | 68 | 338 | 2.0 | 3.0 | 0.00 | 0.00 | 0.00 | 53 | 1007.1 |
| 20260901152536 | 68 | 23 | 1.0 | 3.0 | 0.00 | 0.00 | 0.00 | 55 | 1007.2 |
| 20260901151516 | 68 | 315 | 1.0 | 2.0 | 0.00 | 0.00 | 0.00 | 54 | 1007.2 |
| 20260901150516 | 68 | 338 | 1.0 | 3.0 | 0.00 | 0.00 | 0.00 | 52 | 1007.2 |
| 20260901145516 | 68 | 315 | 2.0 | 4.0 | 0.00 | 0.00 | 0.00 | 54 | 1007.3 |
| 20260901144516 | 68 | 158 | 1.0 | 5.0 | 0.00 | 0.00 | 0.00 | 54 | 1007.4 |
| 20260901143516 | 68 | 135 | 1.0 | 3.0 | 0.00 | 0.00 | 0.00 | 52 | 1007.4 |
| 20260901142517 | 68 | 180 | 3.0 | 6.0 | 0.00 | 0.00 | 0.00 | 53 | 1007.5 |
| 20260901141536 | 68 | 68 | 1.0 | 2.0 | 0.00 | 0.00 | 0.00 | 50 | 1007.4 |
| 20260901140516 | 68 | 45 | 1.0 | 4.0 | 0.00 | 0.00 | 0.00 | 51 | 1007.6 |
| 20260901135536 | 68 | 248 | 1.0 | 4.0 | 0.00 | 0.00 | 0.00 | 51 | 1007.6 |
| 20260901134516 | 68 | 315 | 4.0 | 8.0 | 0.00 | 0.00 | 0.00 | 50 | 1007.6 |
| 20260901133516 | 68 | 248 | 2.0 | 6.0 | 0.00 | 0.00 | 0.00 | 49 | 1007.7 |
| 20260901132516 | 68 | 338 | 3.0 | 6.0 | 0.00 | 0.00 | 0.00 | 50 | 1007.7 |
| 20260901131516 | 68 | 293 | 4.0 | 7.0 | 0.00 | 0.00 | 0.00 | 51 | 1007.9 |
| 20260901130516 | 69 | 0 | 2.0 | 6.0 | 0.00 | 0.00 | 0.00 | 51 | 1007.8 |
| 20260901125516 | 69 | 0 | 3.0 | 6.0 | 0.00 | 0.00 | 0.00 | 54 | 1007.8 |
| 20260901124516 | 69 | 248 | 3.0 | 7.0 | 0.00 | 0.00 | 0.00 | 52 | 1007.9 |
| 20260901123516 | 68 | 270 | 2.0 | 4.0 | 0.00 | 0.00 | 0.00 | 50 | 1007.9 |
| 20260901122536 | 69 | 270 | 3.0 | 5.0 | 0.00 | 0.00 | 0.00 | 47 | 1007.8 |
| 20260901121516 | 69 | 0 | 2.0 | 5.0 | 0.00 | 0.00 | 0.00 | 49 | 1007.8 |
| 20260901120516 | 69 | 0 | 2.0 | 5.0 | 0.00 | 0.00 | 0.00 | 49 | 1007.8 |
| 20260901115516 | 69 | 180 | 2.0 | 4.0 | 0.00 | 0.00 | 0.00 | 55 | 1007.8 |
| 20260901114516 | 68 | 248 | 1.0 | 4.0 | 0.00 | 0.00 | 0.00 | 53 | 1007.9 |
| 20260901113516 | 68 | 0 | 2.0 | 5.0 | 0.00 | 0.00 | 0.00 | 55 | 1007.9 |
| 20260901112536 | 67 | 338 | 2.0 | 5.0 | 0.00 | 0.00 | 0.00 | 56 | 1007.9 |
| 20260901111516 | 67 | 0 | 1.0 | 4.0 | 0.00 | 0.00 | 0.00 | 62 | 1008.0 |
| 20260901110516 | 66 | 0 | 2.0 | 6.0 | 0.00 | 0.00 | 0.00 | 61 | 1007.9 |
| 20260901105536 | 65 | 45 | 3.0 | 5.0 | 0.00 | 0.00 | 0.00 | 61 | 1007.9 |
| 20260901104516 | 64 | 113 | 2.0 | 4.0 | 0.00 | 0.00 | 0.00 | 61 | 1007.9 |
| 20260901103516 | 64 | 338 | 3.0 | 5.0 | 0.00 | 0.00 | 0.00 | 63 | 1007.9 |
| 20260901102516 | 63 | 0 | 4.0 | 6.0 | 0.00 | 0.00 | 0.00 | 66 | 1007.8 |
| 20260901101516 | 63 | 270 | 1.0 | 3.0 | 0.00 | 0.00 | 0.00 | 68 | 1007.8 |
| 20260901100516 | 63 | 225 | 1.0 | 3.0 | 0.00 | 0.00 | 0.00 | 69 | 1007.8 |
| 20260901095656 | 62 | 270 | 2.0 | 5.0 | 0.00 | 0.00 | 0.00 | 68 | 1007.7 |
| 20260901094516 | 62 | 270 | 3.0 | 6.0 | 0.00 | 0.00 | 0.00 | 68 | 1007.7 |
| 20260901093516 | 62 | 0 | 3.0 | 5.0 | 0.00 | 0.00 | 0.00 | 71 | 1007.7 |
| 20260901092516 | 62 | 180 | 2.0 | 4.0 | 0.00 | 0.00 | 0.00 | 73 | 1007.8 |
| 20260901091516 | 61 | 270 | 2.0 | 6.0 | 0.00 | 0.00 | 0.00 | 73 | 1007.8 |
| 20260901090516 | 61 | 338 | 1.0 | 4.0 | 0.00 | 0.00 | 0.00 | 73 | 1007.7 |
| 20260901085516 | 60 | 248 | 1.0 | 3.0 | 0.00 | 0.00 | 0.00 | 75 | 1007.8 |
| 20260901084516 | 60 | 293 | 2.0 | 5.0 | 0.00 | 0.00 | 0.00 | 74 | 1007.8 |
| 20260901083516 | 59 | 0 | 2.0 | 6.0 | 0.00 | 0.00 | 0.00 | 75 | 1007.7 |
| 20260901082516 | 59 | 0 | 3.0 | 5.0 | 0.00 | 0.00 | 0.00 | 76 | 1007.7 |
| 20260901081516 | 59 | 0 | 2.0 | 5.0 | 0.00 | 0.00 | 0.00 | 79 | 1007.7 |
| 20260901080516 | 58 | 45 | 2.0 | 5.0 | 0.00 | 0.00 | 0.00 | 82 | 1007.7 |
| 20260901075516 | 58 | 0 | 2.0 | 5.0 | 0.00 | 0.00 | 0.00 | 83 | 1007.7 |
| 20260901074516 | 58 | 315 | 2.0 | 4.0 | 0.00 | 0.00 | 0.00 | 85 | 1007.6 |
| 20260901073516 | 57 | 0 | 3.0 | 5.0 | 0.00 | 0.00 | 0.00 | 85 | 1007.6 |
| 20260901072516 | 57 | 293 | 2.0 | 4.0 | 0.00 | 0.00 | 0.00 | 86 | 1007.6 |
| 20260901071516 | 57 | 270 | 1.0 | 4.0 | 0.00 | 0.00 | 0.00 | 87 | 1007.6 |
| 20260901070516 | 57 | 270 | 3.0 | 6.0 | 0.00 | 0.00 | 0.00 | 87 | 1007.5 |
| 20260901065516 | 56 | 315 | 2.0 | 5.0 | 0.00 | 0.00 | 0.00 | 89 | 1007.5 |
| 20260901064516 | 56 | 315 | 2.0 | 4.0 | 0.00 | 0.00 | 0.00 | 89 | 1007.4 |
| 20260901063556 | 56 | 293 | 1.0 | 4.0 | 0.00 | 0.00 | 0.00 | 90 | 1007.4 |
| 20260901062516 | 55 | 270 | 1.0 | 3.0 | 0.00 | 0.00 | 0.00 | 91 | 1007.4 |
| 20260901061516 | 54 | 270 | 3.0 | 5.0 | 0.00 | 0.00 | 0.00 | 93 | 1007.3 |
| 20260901060556 | 54 | 293 | 1.0 | 3.0 | 0.00 | 0.00 | 0.00 | 95 | 1007.4 |
| 20260901055536 | 53 | 293 | 2.0 | 4.0 | 0.00 | 0.00 | 0.00 | 96 | 1007.2 |
| 20260901054516 | 53 | 315 | 2.0 | 5.0 | 0.00 | 0.00 | 0.00 | 96 | 1007.2 |
| 20260901053516 | 52 | 315 | 2.0 | 5.0 | 0.00 | 0.00 | 0.00 | 96 | 1007.2 |
| 20260901052515 | 52 | 315 | 1.0 | 3.0 | 0.00 | 0.00 | 0.00 | 95 | 1007.2 |
| 20260901051536 | 52 | 338 | 1.0 | 2.0 | 0.00 | 0.00 | 0.00 | 95 | 1007.1 |
| 20260901050516 | 52 | 315 | 1.0 | 2.0 | 0.00 | 0.00 | 0.00 | 95 | 1007.2 |
| 20260901045516 | 52 | 315 | 1.0 | 3.0 | 0.00 | 0.00 | 0.00 | 95 | 1007.1 |
| 20260901044536 | 52 | 315 | 2.0 | 5.0 | 0.00 | 0.00 | 0.00 | 95 | 1007.1 |
| 20260901043516 | 53 | 293 | 2.0 | 5.0 | 0.00 | 0.00 | 0.00 | 95 | 1007.0 |
| 20260901042515 | 53 | 315 | 2.0 | 5.0 | 0.00 | 0.00 | 0.00 | 95 | 1007.0 |
| 20260901041515 | 53 | 293 | 1.0 | 3.0 | 0.00 | 0.00 | 0.00 | 95 | 1007.0 |
| 20260901040515 | 53 | 315 | 2.0 | 4.0 | 0.00 | 0.01 | 0.00 | 95 | 1007.0 |
| 20260901035516 | 53 | 293 | 1.0 | 3.0 | 0.00 | 0.01 | 0.00 | 95 | 1006.9 |
| 20260901034516 | 54 | 0 | 1.0 | 3.0 | 0.00 | 0.01 | 0.00 | 95 | 1006.9 |
| 20260901033516 | 54 | 0 | 1.0 | 3.0 | 0.00 | 0.01 | 0.00 | 96 | 1006.8 |
| 20260901032556 | 54 | 23 | 1.0 | 3.0 | 0.00 | 0.01 | 0.00 | 96 | 1006.8 |
| 20260901031515 | 54 | 0.0 | 2.0 | 0.00 | 0.01 | 0.00 | 96 | 1006.8 | |
| 20260901030516 | 54 | 293 | 1.0 | 3.0 | 0.00 | 0.01 | 0.00 | 96 | 1006.7 |
| 20260901025516 | 53 | 293 | 2.0 | 6.0 | 0.00 | 0.01 | 0.00 | 96 | 1006.7 |
| 20260901024515 | 53 | 293 | 3.0 | 5.0 | 0.00 | 0.01 | 0.00 | 96 | 1006.6 |
| 20260901023516 | 53 | 315 | 2.0 | 3.0 | 0.00 | 0.01 | 0.00 | 95 | 1006.6 |
| 20260901022516 | 53 | 338 | 1.0 | 3.0 | 0.00 | 0.02 | 0.00 | 95 | 1006.6 |
| 20260901021516 | 54 | 338 | 1.0 | 2.0 | 0.00 | 0.02 | 0.00 | 95 | 1006.4 |
| 20260901020515 | 54 | 338 | 1.0 | 2.0 | 0.00 | 0.03 | 0.00 | 95 | 1006.4 |
| 20260901015516 | 54 | 0.0 | 1.0 | 0.00 | 0.03 | 0.00 | 95 | 1006.3 | |
| 20260901014516 | 55 | 90 | 1.0 | 2.0 | 0.00 | 0.04 | 0.00 | 96 | 1006.3 |
| 20260901013515 | 55 | 0.0 | 1.0 | 0.00 | 0.05 | 0.00 | 96 | 1006.1 | |
| 20260901012516 | 55 | 293 | 2.0 | 6.0 | 0.00 | 0.06 | 0.00 | 96 | 1005.9 |
| 20260901011515 | 54 | 293 | 3.0 | 5.0 | 0.00 | 0.06 | 0.00 | 96 | 1005.9 |
| 20260901010516 | 54 | 293 | 1.0 | 5.0 | 0.00 | 0.06 | 0.00 | 96 | 1005.9 |
| 20260901005515 | 54 | 315 | 1.0 | 4.0 | 0.00 | 0.06 | 0.00 | 95 | 1005.8 |
| 20260901004536 | 54 | 270 | 1.0 | 3.0 | 0.00 | 0.06 | 0.00 | 95 | 1005.7 |
| 20260901003515 | 54 | 270 | 1.0 | 2.0 | 0.00 | 0.06 | 0.00 | 95 | 1005.8 |
| 20260901002516 | 54 | 270 | 1.0 | 1.0 | 0.00 | 0.07 | 0.00 | 95 | 1005.7 |
| 20260901001515 | 54 | 270 | 1.0 | 2.0 | 0.00 | 0.07 | 0.00 | 95 | 1005.6 |
| 20260901000516 | 54 | 270 | 2.0 | 3.0 | 0.00 | 0.07 | 0.00 | 96 | 1005.6 |
| 20260831235536 | 54 | 248 | 2.0 | 4.0 | 0.00 | 0.07 | 0.00 | 96 | 1005.6 |
| 20260831234556 | 54 | 315 | 1.0 | 3.0 | 0.00 | 0.07 | 0.00 | 95 | 1005.5 |
| 20260831233515 | 53 | 270 | 1.0 | 4.0 | 0.00 | 0.07 | 0.00 | 95 | 1005.5 |
| 20260831232516 | 53 | 270 | 1.0 | 3.0 | 0.00 | 0.07 | 0.00 | 95 | 1005.4 |
| 20260831231516 | 52 | 293 | 2.0 | 3.0 | 0.00 | 0.07 | 0.00 | 95 | 1005.3 |
| 20260831230516 | 52 | 0.0 | 2.0 | 0.00 | 0.07 | 0.00 | 94 | 1005.3 | |
| 20260831225515 | 52 | 0.0 | 1.0 | 0.00 | 0.07 | 0.00 | 94 | 1005.3 | |
| 20260831224516 | 52 | 0.0 | 1.0 | 0.00 | 0.07 | 0.00 | 94 | 1005.3 | |
| 20260831223515 | 52 | 293 | 1.0 | 2.0 | 0.00 | 0.07 | 0.00 | 94 | 1005.2 |
| 20260831222515 | 53 | 293 | 1.0 | 2.0 | 0.00 | 0.07 | 0.00 | 94 | 1005.3 |
| 20260831221535 | 52 | 293 | 2.0 | 3.0 | 0.00 | 0.07 | 0.00 | 93 | 1005.4 |
| 20260831220515 | 53 | 0.0 | 2.0 | 0.00 | 0.07 | 0.00 | 93 | 1005.3 | |
| 20260831215557 | 53 | 248 | 1.0 | 2.0 | 0.00 | 0.07 | 0.07 | 92 | 1005.4 |
| 20260831214537 | 53 | 0.0 | 1.0 | 0.00 | 0.07 | 0.07 | 92 | 1005.4 | |
| 20260831213517 | 54 | 0.0 | 1.0 | 0.00 | 0.07 | 0.07 | 92 | 1005.4 | |
| 20260831212517 | 54 | 248 | 1.0 | 3.0 | 0.00 | 0.07 | 0.07 | 92 | 1005.4 |